Location: Newark
(25.4800°N, 85.7200°E)
Time: 15:54:54
(UTC+00:00)

Explorer 11/Cluster Stage 4 - Pass Details

Date: 24 August 2019
Orbit: 467 x 1260 km, 28.8° (Epoch: 17 September)

Event Time Altitude Azimuth Distance (km) Brightness Sun altitude
Rises 04:14:42 0° 253° (WSW) 3,979 9.9 57.2°
Reaches altitude 10° 04:17:25 10° 253° (WSW) 3,094 9.5 57.8°
Maximum altitude 04:25:24 88° 166° (SSE) 1,254 8.9 59.5°
Drops below altitude 10° 04:33:40 10° 76° (ENE) 3,198 10.2 61.2°
Sets 04:36:31 0° 76° (ENE) 4,119 10.6 61.8°
